Weather History for MHTG - March, 2013

Change the Weather History Date:

Tuesday, March 5, 2013

  Actual Average Record
Temperature  
Mean Temperature 70 °F -  
Max Temperature 86 °F 83 °F 89 °F (2003)
Min Temperature 55 °F 60 °F 50 °F (2011)
Cooling Degree Days 6    
Growing Degree Days 20 (Base 50)    
Moisture  
Dew Point 58 °F    
Average Humidity 61    
Maximum Humidity 88    
Minimum Humidity 29    
Precipitation  
Precipitation 0.00 in 0.02 in - ()
Sea Level Pressure  
Sea Level Pressure 30.06 in    
Wind  
Wind Speed 4 mph ()    
Max Wind Speed 8 mph    
Max Gust Speed -    
Visibility 6.5 miles    
Events Rain    
Averages and records for this station are not official NWS values.
T = Trace of Precipitation, MM = Missing Value Source: Averaged Metar Reports

Daily Weather History Graph

Daily Weather History Graph

Search for Another Location

Airport or City:

Trip Planner

Search our weather history database for the weather conditions in past years. The results will help you decide how hot, cold, wet, or windy it might be!

Date:

Astronomy

Mar. 05, 2013 Rise Set
Actual Time 6:02 AM CST 5:57 PM CST
Civil Twilight 5:41 AM CST 6:19 PM CST
Nautical Twilight 5:16 AM CST 6:44 PM CST
Astronomical Twilight 4:51 AM CST 7:08 PM CST
Moon 12:33 AM CST (3/5) 12:17 PM CST (3/5)
Length of Visible Light 12h 37m
Length of Day
11h 55m
Last Quarter, 40% of the Moon is Illuminated
Mar 5
Last Quarter
Mar 11
New
Mar 19
First Quarter
Mar 27
Full
Apr 2
Last Quarter

Hourly Weather History & Observations

Time (CST) Temp. Heat Index Dew Point Humidity Pressure Visibility Wind Dir Wind Speed Gust Speed Precip Events Conditions
12:00 AM 63 °F - 54 °F 65% 30.05 in 6 mi North 6.9 mph - -   Haze
12:00 AM 62.6 °F - 53.6 °F 72% 30.15 in 6.2 mi North 6.9 mph - N/A   Partly Cloudy
1:00 AM 62.6 °F - 55.4 °F 77% 30.12 in 6.2 mi North 4.6 mph - N/A   Scattered Clouds
2:00 AM 62.6 °F - 55.4 °F 77% 30.09 in 6.2 mi NNE 3.5 mph - N/A   Mostly Cloudy
3:00 AM 60 °F - 54 °F 76% 30.01 in 12 mi Calm Calm - -   Haze
3:00 AM 60.8 °F - 55.4 °F 82% 30.09 in 6.2 mi Calm Calm - N/A   Mostly Cloudy
4:00 AM 59.0 °F - 55.4 °F 88% 30.09 in 6.2 mi Calm Calm - N/A   Mostly Cloudy
6:00 AM 57.2 °F - 53.6 °F 88% 30.12 in 6.2 mi Calm Calm - N/A   Scattered Clouds
10:00 AM 71.6 °F - 57.2 °F 60% 30.15 in 6.2 mi Variable 2.3 mph - N/A   Scattered Clouds
11:00 AM 78.8 °F - 57.2 °F 47% 30.12 in 6.2 mi North 5.8 mph - N/A   Partly Cloudy
12:00 PM 83 °F - 58 °F 33% 29.84 in 9 mi NE 4.6 mph - -   Haze
12:00 PM 82.4 °F 82.5 °F 59.0 °F 45% 30.09 in 6.2 mi NE 4.6 mph - N/A   Scattered Clouds
1:00 PM 86.0 °F 85.4 °F 59.0 °F 40% 30.04 in 6.2 mi NNE 6.9 mph - N/A   Scattered Clouds
2:00 PM 86.0 °F 84.9 °F 57.2 °F 37% 30.01 in 6.2 mi North 6.9 mph - N/A   Mostly Cloudy
3:00 PM 85 °F - 58 °F 29% 29.74 in 7 mi ENE 3.5 mph - -   Haze
3:00 PM 86.0 °F 84.9 °F 57.2 °F 37% 30.01 in 6.2 mi ENE 3.5 mph - N/A   Mostly Cloudy
4:00 PM 84.2 °F 83.5 °F 57.2 °F 40% 30.01 in 6.2 mi NE 8.1 mph - N/A   Mostly Cloudy
5:00 PM 82.4 °F 82.5 °F 59.0 °F 45% 30.04 in 6.2 mi East 4.6 mph - N/A   Mostly Cloudy
6:00 PM 78.8 °F - 59.0 °F 51% 30.04 in 5.6 mi East 3.5 mph - N/A   Mostly Cloudy
7:00 PM 73.4 °F - 64.4 °F 73% 30.06 in 5.6 mi NE 3.5 mph - N/A Rain Light Rain
8:00 PM 71.6 °F - 64.4 °F 78% 30.09 in 5.6 mi SW 3.5 mph - N/A   Mostly Cloudy
9:00 PM 69.8 °F - 62.6 °F 78% 30.12 in 6.2 mi Calm Calm - N/A   Scattered Clouds
10:00 PM 69.8 °F - 60.8 °F 73% 30.12 in 6.2 mi North 6.9 mph - N/A   Partly Cloudy
11:00 PM 68.0 °F - 60.8 °F 78% 30.12 in 6.2 mi North 8.1 mph - N/A   Mostly Cloudy